This is the latest recevied weather packets stored in our database for station/object K5EAA-13. If no packets are shown the sender has not sent any weather packets the latest 10 day(s).
| Time | Temp. | Humidity | Pressure | Rain* | Wind** | Luminosity | Snow |
|---|---|---|---|---|---|---|---|
| 1787791979 | 35° C | 36% | 1011.6 hPa | 0 mm | - | 14 W/m² | - |
| 1787791678 | 35° C | 36% | 1011.6 hPa | 0 mm | - | 19 W/m² | - |
| 1787791374 | 35.56° C | 35% | 1011.5 hPa | 0 mm | - | 27 W/m² | - |
| 1787791074 | 35.56° C | 35% | 1011.5 hPa | 0 mm | - | 35 W/m² | - |
| 1787790770 | 35.56° C | 35% | 1011.4 hPa | 0 mm | - | 41 W/m² | - |
| 1787790469 | 35.56° C | 35% | 1011.3 hPa | 0 mm | - | 46 W/m² | - |
| 1787790165 | 35.56° C | 35% | 1011.5 hPa | 0 mm | - | 49 W/m² | - |
| 1787789861 | 36.11° C | 34% | 1011.5 hPa | 0 mm | - | 54 W/m² | - |
| 1787789560 | 35.56° C | 34% | 1011.4 hPa | 0 mm | - | 57 W/m² | - |
| 1787789259 | 35.56° C | 35% | 1011.7 hPa | 0 mm | - | 54 W/m² | - |
| 1787788954 | 35.56° C | 35% | 1011.4 hPa | 0 mm | - | 40 W/m² | - |
| 1787788652 | 35.56° C | 35% | 1011.5 hPa | 0 mm | - | 41 W/m² | - |
| 1787788346 | 35.56° C | 35% | 1011.5 hPa | 0 mm | - | 43 W/m² | - |
| 1787788042 | 36.11° C | 35% | 1011.6 hPa | 0 mm | - | 44 W/m² | - |
| 1787787737 | 36.11° C | 35% | 1011.5 hPa | 0 mm | - | 42 W/m² | - |
| 1787787436 | 36.11° C | 35% | 1011.5 hPa | 0 mm | - | 36 W/m² | - |
| 1787787131 | 36.11° C | 36% | 1011.3 hPa | 0 mm | - | 31 W/m² | - |
| 1787786830 | 36.11° C | 35% | 1011.4 hPa | 0 mm | - | 29 W/m² | - |
| 1787786526 | 36.67° C | 35% | 1011.4 hPa | 0 mm | - | 30 W/m² | - |
| 1787786221 | 37.22° C | 35% | 1011.3 hPa | 0 mm | - | 33 W/m² | - |
| 1787785917 | 38.89° C | 31% | 1011.1 hPa | 0 mm | - | 44 W/m² | - |
| 1787785613 | 39.44° C | 29% | 1011.1 hPa | 0 mm | - | 111 W/m² | - |
| 1787785312 | 39.44° C | 29% | 1011.2 hPa | 0 mm | - | 203 W/m² | - |
| 1787785011 | 38.89° C | 30% | 1011.3 hPa | 0 mm | - | 218 W/m² | - |
| 1787784706 | 38.33° C | 31% | 1011.4 hPa | 0 mm | - | 233 W/m² | - |
* Rain latest hour (hover to see other rain measurements)
** Current wind speed in m/s (hover to see current wind gust speed)